Temp
63 63 64 64 64 64 64 64 64 64 64 64 64 63 63 63 63 60 61 69 68 70 69 65 64 63 63 59 60 54 46 42 45 48 51 56 56 60 58 56 57 61 58 61 60
63 63 63 64 63 63 64 64 64 63 63 63 63 63 63 63 58 60 71 72 71 70 65 62 59 61 57 56 56 51 44 48 52 52 50 54 52 54 57 57 53 56 63 61 58
62 63 63 63 63 63 63 63 63 63 63 63 63 63 62 60 60 63 71 72 70 68 66 64 64 61 53 53 52 49 48 51 54 56 54 54 54 55 51 54 57 57 60 60 60
62 62 62 62 63 63 63 63 63 63 63 63 63 62 62 58 52 63 70 70 70 66 65 63 60 54 50 49 54 47 54 54 57 57 54 53 57 54 55 60 60 58 56 56 54
61 61 61 61 62 62 63 63 63 63 62 63 63 62 59 55 61 65 68 68 66 65 63 61 57 55 50 51 52 49 52 55 58 56 54 54 56 53 57 62 59 58 54 51 49
61 60 60 61 61 62 62 63 63 62 62 63 63 62 56 52 65 67 65 64 65 63 61 61 59 59 53 52 51 52 53 54 56 56 55 54 52 52 58 56 57 55 49 47 47
60 60 60 60 61 62 62 62 62 62 62 63 63 60 54 59 64 64 65 62 64 63 60 60 60 57 55 50 54 52 50 52 54 52 54 53 50 51 59 56 54 49 46 46 46
60 60 60 60 61 61 61 62 61 61 62 63 62 55 55 63 62 64 64 62 63 63 62 61 61 58 54 55 53 47 45 43 51 51 51 52 46 57 58 55 49 45 42 44 45
59 59 60 60 60 60 61 61 61 61 63 62 55 52 55 65 61 63 62 62 62 62 62 67 61 53 53 46 42 41 37 39 47 51 50 48 45 55 56 53 49 41 41 43 42
59 59 60 60 60 60 60 61 62 61 61 62 62 52 58 58 60 62 61 63 58 57 56 55 49 44 42 42 37 38 37 40 41 47 48 44 46 53 51 48 42 39 39 40 41
59 59 60 60 60 61 59 56 55 53 54 56 55 55 57 58 61 58 61 60 57 54 46 47 43 41 44 46 44 42 39 39 42 49 45 45 45 46 45 41 39 39 39 39 40
59 60 60 60 61 61 57 54 56 56 50 58 56 57 60 60 54 57 62 55 52 46 46 43 40 49 48 46 44 41 38 38 44 46 45 44 44 40 41 40 40 38 37 38 39
59 59 59 60 60 58 54 56 59 57 47 53 56 55 56 59 54 54 59 53 48 44 44 41 47 49 48 44 42 40 39 38 42 42 41 39 40 39 39 40 40 39 39 39 37
59 59 59 60 56 56 54 60 58 57 42 46 50 54 55 56 50 56 57 54 46 45 43 42 48 47 43 43 45 37 45 42 40 37 33 37 29 37 37 36 36 36 34 35 36
59 59 59 60 55 54 59 58 58 56 32 48 48 57 54 51 49 49 53 51 45 45 44 43 43 42 42 44 46 42 44 42 39 35 32 32 30 34 35 32 33 34 35 35 36
59 59 59 58 57 58 60 59 57 42 32 43 47 46 47 48 47 49 49 52 49 45 42 44 46 46 46 45 46 46 41 38 34 33 25 33 33 32 34 36 34 35 35 36 36
58 58 57 60 56 61 59 55 41 35 46 41 41 44 44 42 43 45 43 41 39 35 35 39 41 43 46 42 42 41 37 29 25 23 26 30 30 34 35 35 38 35 34 35 36
58 58 58 60 61 60 55 46 34 42 43 46 44 43 41 44 43 42 40 38 42 39 35 35 33 43 45 44 40 37 38 28 18 20 24 31 28 35 34 36 38 37 36 35 35
58 57 57 59 59 58 50 40 40 44 46 44 44 39 38 43 42 40 38 37 42 42 39 34 35 41 42 41 44 36 33 37 28 17 23 28 31 33 34 33 34 34 34 34 35
54 53 54 58 58 54 47 43 44 51 50 48 40 43 36 40 40 38 37 41 42 44 43 40 32 39 40 42 39 38 40 31 28 15 13 25 27 31 29 31 32 32 33 35 36
50 46 51 57 56 49 42 43 46 52 53 47 43 41 41 41 42 37 38 41 43 41 44 40 37 33 37 36 36 34 33 33 33 26 17 14 25 35 35 35 33 34 36 36 36
48 42 50 53 44 44 44 43 47 47 49 48 47 44 43 43 38 40 40 43 45 44 40 41 36 26 33 35 35 35 35 35 30 25 24 26 30 37 36 37 37 36 38 36 37
44 43 49 49 40 38 40 42 45 44 44 44 43 45 45 42 37 39 40 39 42 43 40 41 31 20 27 32 32 32 34 34 31 27 22 21 26 36 34 34 36 36 36 37 36
42 37 41 44 43 40 38 39 39 43 43 44 43 44 41 39 42 38 37 39 39 40 45 44 31 29 30 30 32 28 31 31 27 19 22 29 29 29 33 34 34 35 35 36 34
40 39 41 35 37 40 41 38 37 36 41 44 40 43 42 36 37 36 36 35 38 41 37 39 29 28 28 29 28 29 28 30 28 30 26 29 30 33 34 34 35 35 34 33 32
37 36 38 37 42 39 39 36 36 39 39 38 39 42 43 38 38 33 35 35 34 32 34 33 23 26 27 30 31 28 29 30 31 31 29 31 31 39 35 36 34 34 34 33 32
38 39 38 36 36 37 36 37 37 42 39 41 41 39 39 42 41 38 38 38 37 34 31 29 26 23 26 25 24 20 25 29 30 31 33 27 34 24 29 32 32 32 32 32 32
MSLP
1019.62 1019.47 1019.28 1019.20 1019.12 1018.99 1018.96 1018.87 1018.71 1018.58 1018.38 1018.13 1017.88 1017.75 1017.49 1017.16 1016.64 1016.47 1015.91 1015.13 1014.96 1015.04 1015.11 1015.18 1015.19 1015.38 1015.57 1016.13 1016.52 1017.28 1018.28 1018.58 1017.66 1017.00 1016.24 1015.79 1015.74 1015.13 1014.97 1014.86 1014.75 1014.39 1014.50 1014.64 1014.51
1019.61 1019.52 1019.38 1019.26 1019.20 1019.08 1018.98 1018.83 1018.72 1018.61 1018.44 1018.12 1017.92 1017.74 1017.51 1017.18 1016.90 1016.08 1015.11 1014.95 1014.94 1015.05 1015.30 1015.51 1015.68 1015.79 1016.34 1016.63 1016.98 1017.54 1018.49 1017.83 1016.96 1016.38 1016.16 1015.96 1015.89 1015.79 1015.54 1015.23 1015.30 1015.13 1014.94 1014.91 1014.95
1019.60 1019.52 1019.41 1019.32 1019.25 1019.14 1019.08 1018.94 1018.75 1018.60 1018.47 1018.18 1017.92 1017.68 1017.45 1017.26 1016.82 1015.46 1015.05 1015.03 1015.19 1015.26 1015.34 1015.62 1015.84 1016.16 1016.71 1016.92 1017.22 1017.60 1017.80 1017.37 1016.75 1016.45 1016.26 1016.24 1016.04 1015.94 1015.98 1015.73 1015.52 1015.84 1015.99 1015.88 1015.75
1019.56 1019.43 1019.41 1019.32 1019.27 1019.15 1019.04 1018.99 1018.76 1018.57 1018.38 1018.17 1017.93 1017.66 1017.35 1017.28 1016.67 1015.19 1015.04 1015.04 1015.17 1015.39 1015.48 1015.76 1016.12 1016.60 1017.08 1017.28 1017.25 1017.66 1017.19 1017.12 1016.67 1016.48 1016.59 1016.45 1016.10 1016.17 1016.12 1015.36 1015.34 1016.38 1016.65 1016.90 1017.19
1019.49 1019.39 1019.30 1019.33 1019.24 1019.14 1019.03 1018.86 1018.72 1018.49 1018.24 1018.04 1017.87 1017.72 1017.33 1017.18 1016.02 1015.16 1015.18 1015.24 1015.32 1015.57 1015.74 1016.04 1016.41 1016.76 1017.13 1017.26 1017.32 1017.49 1017.20 1017.01 1016.62 1016.57 1016.72 1016.55 1016.28 1016.47 1015.77 1015.21 1016.27 1016.61 1017.42 1018.12 1018.64
1019.40 1019.34 1019.23 1019.13 1019.14 1019.00 1018.90 1018.76 1018.56 1018.35 1018.12 1017.94 1017.86 1017.80 1017.66 1016.94 1015.20 1015.21 1015.34 1015.49 1015.52 1015.64 1015.82 1016.02 1016.24 1016.49 1016.95 1017.18 1017.41 1017.36 1017.33 1017.16 1016.73 1016.47 1016.53 1016.63 1016.35 1016.49 1015.40 1015.59 1016.95 1017.59 1018.68 1019.32 1019.56
1019.14 1019.16 1019.14 1018.99 1018.95 1018.82 1018.75 1018.60 1018.50 1018.31 1018.08 1017.88 1017.82 1017.95 1017.57 1016.06 1015.20 1015.32 1015.39 1015.52 1015.57 1015.70 1015.95 1016.10 1016.18 1016.57 1017.04 1017.28 1017.29 1017.44 1017.68 1017.30 1016.48 1016.27 1016.28 1016.36 1016.53 1016.25 1015.43 1016.38 1017.60 1018.82 1019.74 1020.17 1020.56
1018.79 1018.87 1018.95 1018.87 1018.75 1018.69 1018.57 1018.43 1018.26 1018.15 1018.01 1017.82 1017.84 1017.98 1016.86 1015.40 1015.38 1015.41 1015.43 1015.68 1015.75 1015.80 1015.96 1016.16 1016.28 1016.82 1017.30 1017.60 1017.97 1018.24 1018.36 1018.10 1016.58 1016.42 1016.38 1016.56 1016.64 1016.03 1016.09 1016.91 1018.70 1019.94 1020.92 1021.33 1021.61
1018.49 1018.51 1018.65 1018.73 1018.66 1018.58 1018.42 1018.16 1017.89 1017.80 1017.96 1017.98 1018.04 1017.84 1016.46 1015.39 1015.51 1015.40 1015.41 1015.76 1016.00 1016.20 1016.30 1016.32 1016.61 1017.66 1017.99 1018.58 1019.23 1019.31 1019.04 1018.55 1017.45 1016.69 1016.75 1017.04 1017.39 1016.57 1016.94 1018.13 1019.71 1021.20 1021.98 1022.36 1022.46
1018.06 1018.19 1018.30 1018.35 1018.45 1018.47 1018.29 1017.99 1017.69 1017.75 1017.99 1018.07 1017.96 1018.10 1016.11 1015.39 1015.40 1015.49 1015.58 1015.83 1016.21 1016.59 1016.90 1017.20 1017.94 1018.59 1019.15 1019.32 1019.46 1019.26 1019.38 1018.82 1018.06 1017.42 1017.33 1017.62 1017.90 1017.50 1018.36 1019.28 1020.92 1022.08 1022.71 1023.15 1023.32
1017.63 1017.75 1017.91 1018.14 1018.16 1018.28 1018.27 1018.05 1018.27 1018.05 1017.80 1016.63 1016.50 1016.14 1015.58 1015.63 1015.48 1015.65 1015.69 1016.06 1016.50 1017.04 1017.66 1018.06 1018.71 1018.72 1018.42 1018.40 1018.47 1018.72 1019.02 1018.93 1018.26 1017.68 1017.97 1017.87 1018.26 1018.90 1020.03 1020.79 1022.08 1023.02 1023.57 1023.97 1024.15
1017.11 1017.38 1017.56 1017.87 1018.08 1018.05 1018.37 1017.97 1017.00 1017.00 1016.71 1015.70 1015.78 1015.80 1015.45 1015.38 1015.70 1015.79 1015.83 1016.36 1016.83 1017.51 1018.11 1018.85 1018.52 1017.62 1018.00 1018.40 1018.81 1018.98 1019.21 1019.15 1018.64 1018.17 1018.57 1018.52 1018.76 1020.06 1020.92 1022.13 1022.95 1023.72 1024.29 1024.64 1024.75
1016.45 1016.93 1017.22 1017.60 1017.90 1017.99 1017.75 1017.18 1016.74 1016.80 1016.98 1015.46 1015.01 1014.93 1015.03 1015.33 1015.40 1015.53 1015.86 1016.32 1016.80 1017.64 1018.10 1018.14 1017.57 1017.44 1017.89 1018.31 1018.82 1018.97 1019.11 1019.07 1019.01 1018.85 1019.03 1019.46 1019.73 1020.47 1022.07 1022.97 1023.72 1024.28 1024.82 1025.47 1025.65
1015.82 1016.31 1016.83 1017.45 1018.09 1017.22 1017.12 1016.29 1016.80 1016.87 1016.91 1015.22 1014.69 1014.18 1014.59 1014.98 1015.58 1015.47 1015.58 1016.04 1016.96 1017.27 1018.15 1018.12 1017.24 1017.43 1017.73 1017.94 1018.28 1018.73 1018.43 1018.89 1019.27 1019.62 1020.13 1020.29 1020.76 1020.56 1021.97 1023.44 1024.48 1025.08 1025.36 1025.55 1025.97
1015.10 1015.68 1016.20 1016.68 1016.45 1016.66 1016.02 1015.97 1016.81 1017.15 1016.78 1014.37 1014.57 1014.46 1014.48 1015.16 1015.72 1015.92 1015.82 1015.90 1016.54 1017.10 1017.82 1017.25 1017.13 1017.30 1017.56 1017.59 1017.98 1018.32 1018.35 1019.06 1019.65 1020.44 1021.08 1021.23 1021.96 1021.08 1022.15 1023.52 1024.51 1025.17 1025.64 1025.95 1026.19
1014.28 1014.90 1015.56 1016.09 1016.12 1015.90 1015.74 1016.21 1016.96 1017.55 1015.14 1014.37 1014.29 1014.51 1015.00 1015.22 1015.73 1016.16 1016.13 1016.14 1016.49 1016.96 1017.26 1017.14 1016.80 1016.75 1016.65 1017.12 1017.50 1018.15 1019.06 1020.05 1020.90 1021.41 1021.98 1021.42 1021.80 1021.59 1022.22 1022.72 1023.99 1025.01 1025.53 1025.92 1026.15
1013.21 1013.83 1014.57 1014.54 1014.42 1015.23 1015.76 1016.36 1016.94 1015.60 1013.65 1013.91 1014.13 1014.41 1014.80 1015.37 1015.99 1016.12 1016.48 1016.75 1016.87 1017.30 1017.33 1017.09 1016.81 1016.58 1016.61 1017.22 1017.84 1018.42 1019.68 1021.15 1022.04 1022.83 1022.16 1021.88 1022.24 1021.11 1021.93 1022.48 1022.94 1024.10 1025.22 1025.72 1026.00
1011.81 1012.76 1012.88 1013.17 1013.82 1014.47 1015.60 1015.72 1014.40 1012.23 1012.65 1012.83 1013.45 1014.36 1014.74 1014.98 1015.58 1016.06 1016.54 1016.87 1016.66 1016.70 1017.05 1017.21 1017.15 1016.55 1016.55 1016.90 1017.64 1018.69 1019.56 1021.22 1022.59 1023.58 1023.49 1022.98 1022.05 1021.08 1022.32 1022.71 1022.98 1024.05 1024.93 1025.62 1025.85
1010.90 1011.44 1011.83 1012.11 1013.05 1013.84 1014.12 1012.74 1011.53 1011.11 1011.25 1012.21 1013.38 1014.00 1014.38 1014.49 1014.99 1015.84 1016.33 1016.26 1015.71 1015.97 1016.12 1016.80 1016.82 1016.52 1016.67 1017.08 1017.74 1019.21 1019.92 1020.40 1022.38 1024.08 1024.19 1022.83 1021.66 1021.81 1022.58 1023.42 1023.99 1024.47 1024.95 1025.39 1025.64
1010.72 1010.84 1010.95 1011.14 1012.23 1013.24 1012.08 1011.20 1011.13 1010.22 1010.30 1011.19 1012.07 1012.61 1013.43 1014.02 1014.86 1015.52 1015.81 1015.08 1015.17 1015.04 1015.09 1016.04 1016.98 1017.03 1017.17 1017.49 1018.57 1018.61 1019.28 1020.81 1022.15 1023.88 1024.30 1022.96 1022.25 1021.25 1022.36 1023.16 1024.05 1024.60 1024.63 1024.89 1025.21
1010.81 1011.33 1011.01 1010.67 1011.46 1011.44 1009.96 1010.27 1010.50 1010.05 1009.92 1010.71 1011.30 1012.06 1012.66 1013.31 1014.03 1014.74 1014.87 1014.55 1014.86 1015.41 1015.41 1015.91 1017.35 1018.35 1018.01 1017.94 1018.72 1019.37 1019.67 1020.59 1021.65 1022.90 1023.18 1023.22 1021.14 1019.91 1020.29 1021.76 1023.00 1023.76 1024.06 1024.29 1024.92
1010.48 1011.10 1011.27 1011.25 1010.31 1009.73 1009.90 1010.00 1010.20 1010.11 1010.35 1010.60 1010.61 1011.60 1011.99 1012.80 1013.66 1014.30 1014.50 1014.21 1013.98 1014.87 1015.87 1016.07 1017.56 1018.98 1018.44 1018.21 1019.05 1018.87 1019.16 1019.95 1021.26 1022.52 1022.70 1022.59 1020.17 1020.01 1020.05 1020.89 1022.18 1023.13 1023.52 1023.84 1024.35
1010.17 1011.00 1011.14 1011.17 1010.02 1010.09 1010.61 1010.48 1010.36 1010.42 1010.40 1010.59 1010.90 1011.44 1011.63 1012.51 1013.66 1014.09 1014.42 1014.79 1014.65 1015.02 1015.30 1016.32 1017.93 1018.88 1019.46 1019.33 1019.52 1019.49 1019.68 1019.97 1020.83 1021.66 1021.89 1022.91 1020.52 1020.43 1020.82 1021.22 1021.90 1022.71 1023.08 1023.67 1024.02
1010.03 1011.23 1011.25 1010.89 1010.72 1010.70 1010.82 1010.79 1010.81 1010.74 1010.46 1010.82 1011.30 1011.50 1011.96 1012.60 1013.16 1014.10 1014.90 1015.19 1015.17 1015.53 1015.75 1016.21 1017.45 1018.46 1018.79 1018.92 1019.24 1020.16 1020.10 1020.37 1020.72 1021.94 1021.55 1020.40 1020.26 1020.86 1021.14 1021.51 1022.12 1022.52 1022.91 1023.35 1023.79
1009.52 1009.70 1010.06 1010.59 1010.74 1010.82 1011.02 1011.30 1010.90 1011.01 1011.29 1011.30 1011.81 1011.67 1011.53 1012.60 1013.54 1014.18 1014.83 1015.61 1015.90 1016.12 1016.59 1017.06 1018.18 1019.05 1019.44 1019.49 1019.74 1019.91 1019.96 1020.25 1020.62 1020.41 1020.70 1020.15 1020.28 1020.20 1020.96 1021.21 1021.61 1022.11 1022.73 1023.12 1023.63
1010.06 1009.99 1010.49 1009.97 1009.50 1009.73 1010.65 1010.69 1010.73 1011.08 1011.07 1011.40 1011.57 1011.38 1011.84 1012.48 1013.14 1014.09 1014.75 1015.36 1015.96 1017.08 1017.40 1018.07 1019.26 1020.16 1020.83 1020.80 1020.77 1020.52 1020.27 1020.43 1020.22 1020.36 1020.68 1020.61 1019.76 1020.16 1020.70 1020.99 1021.33 1021.70 1022.18 1022.73 1023.19
1010.78 1010.58 1010.31 1009.94 1009.88 1010.00 1009.65 1009.51 1010.41 1010.91 1011.36 1011.32 1011.66 1012.23 1012.67 1012.67 1013.32 1014.24 1014.81 1015.38 1015.85 1016.62 1017.68 1018.60 1019.77 1020.97 1021.75 1022.15 1022.07 1021.47 1019.24 1019.76 1020.23 1019.87 1020.29 1020.64 1019.80 1020.76 1021.14 1021.47 1021.57 1021.96 1022.18 1022.54 1022.88
Wind_Speed
4 5 5 6 7 7 8 9 9 10 10 11 12 12 12 13 13 1 4 3 1 8 2 3 2 4 4 3 4 3 5 2 4 4 3 4 6 5 2 3 3 3 1 4 3
4 5 6 6 7 7 8 9 10 11 12 12 11 11 11 12 2 4 4 3 3 8 3 3 2 3 3 2 3 5 4 8 4 3 3 3 1 2 6 6 3 3 7 2 2
5 6 6 6 7 7 8 9 9 10 12 13 12 11 10 8 4 2 5 2 3 4 3 2 4 3 2 2 1 3 5 4 4 5 1 2 4 3 2 7 8 5 7 8 5
7 6 7 7 7 7 8 9 9 10 12 13 12 9 8 2 4 0 1 5 4 3 2 3 3 3 2 2 1 0 5 4 3 2 2 3 4 4 6 10 1 6 4 5 9
8 8 7 7 7 8 8 8 9 10 11 12 9 8 1 2 8 2 4 5 5 5 4 4 3 4 3 3 1 3 3 3 6 7 5 1 9 5 11 12 7 6 10 9 8
9 9 8 7 7 8 8 9 10 10 12 10 7 5 0 4 1 4 6 4 4 4 4 5 6 5 3 3 3 2 3 6 8 6 4 5 5 3 6 1 10 9 9 8 10
10 9 9 8 8 8 9 9 11 10 10 8 3 1 1 12 2 3 3 1 4 3 3 2 3 3 3 1 1 1 5 8 6 2 6 6 3 7 7 6 8 9 8 9 10
10 10 10 9 9 8 9 10 10 10 7 3 4 0 7 0 1 2 2 3 3 2 3 2 2 4 1 1 7 2 3 4 2 2 1 4 8 7 5 6 8 8 7 8 12
11 10 10 10 9 9 9 10 11 5 1 4 1 1 8 2 3 3 2 5 4 3 4 3 4 3 4 5 5 4 4 5 9 1 2 2 6 10 4 9 6 8 7 8 10
11 11 11 10 8 9 10 8 1 4 1 2 2 2 3 4 3 3 1 5 4 4 4 5 5 4 3 4 6 6 5 5 6 1 3 2 9 12 10 8 8 7 7 9 11
12 11 11 10 7 6 5 2 1 2 2 10 6 4 3 1 1 1 2 4 3 5 5 1 4 8 13 12 2 4 4 5 4 4 3 7 8 4 5 9 8 7 8 8 9
13 12 11 9 7 2 1 3 4 2 6 9 5 6 3 5 3 4 5 6 5 6 6 4 8 13 4 4 4 3 3 6 7 4 5 7 10 6 7 5 5 7 7 6 5
14 12 11 8 4 1 4 5 3 2 2 7 6 6 6 7 6 8 10 5 5 7 8 9 6 3 8 5 5 4 5 5 7 3 1 4 8 4 4 7 8 7 6 6 6
16 14 11 7 2 4 5 6 4 1 3 7 6 6 4 6 4 1 5 6 2 10 7 6 5 5 4 5 8 3 7 3 3 2 3 2 6 4 5 5 5 4 5 6 5
17 16 15 15 3 4 3 8 6 3 8 2 3 2 3 6 5 1 1 3 7 7 7 7 5 5 4 6 6 7 4 4 2 3 3 3 1 7 6 4 5 5 5 4 4
19 18 16 10 3 3 6 7 3 4 14 4 5 6 6 3 3 3 2 3 3 4 2 6 2 5 8 3 6 5 4 5 4 3 0 8 7 5 5 5 6 6 6 6 5
22 22 17 8 6 9 6 4 4 10 1 7 6 6 5 6 4 5 6 5 6 7 6 1 4 1 2 5 3 5 6 3 4 3 6 3 4 8 4 5 9 13 9 8 6
23 22 18 10 6 14 6 5 11 9 10 4 5 4 8 8 5 7 7 6 6 2 4 7 4 8 4 5 7 6 8 7 7 4 4 5 7 5 2 4 9 9 8 6 7
23 12 7 11 12 11 9 13 11 8 8 10 4 5 5 5 6 5 8 6 9 11 7 6 5 1 2 2 4 5 4 4 6 3 1 5 4 1 4 4 5 8 7 8 8
2 4 8 14 16 12 12 16 8 6 7 5 11 7 10 7 8 8 10 5 6 10 2 6 2 2 3 4 3 4 7 4 3 2 5 5 7 6 8 10 7 8 10 8 8
3 1 1 9 11 8 12 8 7 4 5 6 10 7 6 8 9 7 6 2 4 5 5 6 4 2 3 6 9 2 2 4 4 5 6 3 7 5 11 14 16 13 10 10 8
4 4 2 5 9 3 12 8 6 6 2 4 5 4 8 7 6 7 10 6 8 9 10 6 6 4 8 1 3 2 7 7 6 7 3 3 11 4 6 11 11 10 10 7 7
5 2 1 1 6 4 3 3 5 7 5 4 6 4 2 6 3 2 3 2 3 8 10 9 2 2 7 3 2 4 5 4 5 4 8 6 7 3 4 7 9 9 8 7 8
5 4 1 2 2 4 4 3 5 2 2 3 2 5 5 5 9 8 8 2 2 2 4 5 4 9 11 7 5 4 5 5 6 5 5 15 7 2 3 7 6 7 6 8 7
0 4 3 7 8 9 8 8 7 4 3 10 5 11 12 6 6 8 4 3 3 3 3 5 7 4 3 2 3 5 6 10 9 8 11 6 12 5 8 10 10 8 5 5 6
3 5 1 1 4 17 12 9 14 12 10 8 11 12 11 11 10 9 7 3 5 2 4 2 2 3 2 1 2 5 6 8 7 5 7 8 19 7 4 6 6 8 6 7 8
1 2 3 4 2 11 10 18 16 12 4 3 9 5 10 10 5 4 5 4 6 9 7 6 7 4 7 3 3 10 11 16 8 9 10 15 16 3 5 8 8 8 8 8 7
Wind_Direction
1 4 5 1 358 359 353 351 350 348 346 342 341 341 339 337 319 213 260 215 225 161 147 119 47 30 33 62 55 113 63 196 234 178 263 324 11 319 261 242 355 295 266 308 325
327 332 336 341 344 346 345 346 342 342 338 335 335 337 335 339 317 272 283 31 104 147 84 117 107 52 35 35 29 87 118 219 217 184 236 297 258 356 340 331 292 307 316 346 339
294 304 312 322 328 333 334 335 335 333 333 330 330 334 333 328 346 258 2 47 128 163 101 91 88 65 47 41 194 159 194 208 254 234 215 264 287 169 221 296 231 264 311 325 316
275 282 292 301 312 319 324 326 327 327 328 328 327 331 328 330 293 211 72 96 116 149 91 103 75 98 116 236 211 245 247 224 265 184 348 270 301 299 209 241 199 28 314 359 23
268 271 279 291 299 304 312 319 323 323 324 328 328 338 347 12 254 56 105 106 105 126 146 137 138 139 176 208 169 207 277 292 270 288 250 281 249 232 263 267 31 82 54 42 38
270 273 275 277 285 296 308 316 322 323 326 325 322 333 47 237 119 122 115 110 133 129 156 138 187 189 167 208 173 198 268 272 276 263 263 233 268 152 280 349 66 76 58 46 39
261 268 274 277 281 291 303 310 315 316 319 318 293 302 121 240 57 130 125 129 162 146 141 173 178 127 129 217 278 245 317 323 268 265 209 163 294 233 245 21 57 71 51 42 32
250 256 263 266 273 286 297 305 305 308 308 345 141 168 245 64 151 134 126 64 79 63 105 122 126 107 115 82 15 14 43 326 267 165 51 142 260 273 330 11 83 78 54 42 29
246 246 251 262 272 285 298 302 299 283 90 120 49 115 266 122 163 170 158 145 97 45 32 80 76 101 48 93 3 3 231 217 315 199 122 140 273 273 353 12 43 65 50 42 30
237 240 244 250 268 292 308 296 44 115 156 237 270 5 239 218 153 134 64 122 118 96 43 56 55 85 52 107 220 205 220 245 240 159 32 282 249 272 342 32 88 79 60 51 40
228 229 235 246 256 294 339 348 336 286 225 193 193 236 127 46 115 106 153 101 93 74 154 21 116 206 203 201 171 150 185 231 265 267 344 255 256 336 20 64 76 68 66 59 44
221 223 226 237 252 281 111 235 234 136 296 231 224 270 204 183 125 200 131 144 149 179 118 61 224 231 143 169 210 251 236 261 281 271 170 290 280 72 36 52 77 88 74 67 54
209 213 217 223 250 236 198 229 130 140 257 283 198 183 191 155 213 202 155 151 164 159 190 177 216 149 174 162 165 215 191 217 227 335 288 332 291 163 58 80 77 69 73 50 45
205 201 199 184 205 173 228 167 144 104 277 252 218 237 121 132 244 141 185 145 194 199 159 235 242 175 170 185 156 240 214 211 189 93 226 36 278 309 138 100 64 72 75 89 70
202 197 193 178 167 181 221 131 128 62 282 214 159 127 142 161 128 312 259 60 167 175 131 238 173 164 183 217 157 227 148 148 119 116 69 289 311 263 116 174 178 164 136 123 101
202 197 191 199 182 240 131 119 110 73 239 216 136 167 132 155 147 122 121 47 151 147 208 234 247 181 193 122 156 137 110 69 63 102 287 233 177 266 193 202 168 176 167 163 144
202 195 191 168 196 158 153 145 161 211 132 198 186 167 167 158 167 155 159 174 168 140 211 213 223 203 172 94 54 87 69 325 341 357 227 132 131 244 296 296 185 167 170 176 167
201 196 207 200 169 150 169 179 210 190 205 128 131 111 177 157 199 169 140 189 237 204 120 165 245 167 190 181 176 176 158 161 217 199 282 319 232 257 320 340 126 139 159 168 178
203 205 205 198 160 162 200 202 219 175 174 146 108 144 221 203 146 138 189 202 200 182 170 148 266 104 99 91 128 185 177 165 106 48 50 248 294 224 92 86 122 155 175 193 198
198 215 212 159 163 184 206 212 220 194 134 148 173 167 178 187 157 182 174 202 202 185 192 201 115 206 146 102 20 156 164 88 18 158 250 278 273 227 198 195 190 196 204 201 208
105 130 326 175 161 203 213 212 199 220 161 155 193 152 184 169 181 192 196 234 189 158 123 135 117 247 107 189 181 133 180 73 123 144 176 257 256 235 191 183 191 203 208 207 201
135 196 61 291 192 178 219 159 182 151 238 151 110 142 167 162 170 201 196 215 154 152 159 181 140 179 202 114 302 213 186 158 179 235 246 161 259 353 175 186 180 197 212 214 201
149 135 128 200 225 200 119 166 213 157 174 140 143 196 170 139 96 269 218 24 159 161 163 175 207 66 345 12 360 213 202 147 103 65 200 173 263 33 78 151 192 196 212 222 214
135 151 260 156 105 139 170 212 191 281 113 115 206 136 143 160 191 191 203 169 34 149 59 130 143 167 223 190 138 184 206 177 138 148 180 229 258 205 198 214 203 217 220 244 222
178 168 202 167 213 211 182 186 197 169 221 184 192 201 182 175 175 195 165 137 70 89 78 146 206 147 26 97 124 193 193 178 187 207 199 214 228 192 199 205 209 221 241 214 203
246 134 264 100 196 176 186 205 202 200 165 200 230 196 188 191 185 194 129 155 187 77 134 28 150 102 224 325 312 273 200 222 219 225 257 259 265 268 169 216 230 240 244 224 218
61 16 270 130 198 182 199 193 210 194 191 152 215 135 197 216 119 80 69 102 147 156 160 135 133 122 236 65 61 284 213 204 198 205 212 230 245 152 184 202 218 227 220 217 210